www.pogodaiklimat.ru

Погода и климат >> Архив погоды >> Индия >> Пенджаб >> Амритсар


ПОГОДА в Амритсаре

  • Прогноз погоды в Амритсаре
  • Монитор погоды в Амритсаре

АРХИВ ПОГОДЫ в Амритсаре

Время (UTC), дата Ветер
(напр.,м/с)
 
Видим.   Явления Облачность Т
(С)
Тd
(С)
f
(%)
Тe
(С)
Тes
(С)
Комфортность P
(гПа)
Po
(гПа)
Тmin
(С)
Tmax
(С)
R
(мм)
R24
(мм)
S
(см)
12 14.04 З 2 4000 м 3/0
[Ac trans]
+32.0 +14.4 34 +34 +35 душно 1008.6 982.5 +34.0
15 14.04 нст 1 4000 м 1/1
[Cb calv]
+27.0 +15.2 48 +30 +30 душно 1009.5 983.0
18 14.04 нст 1 4000 м мгла 3/0
[Ac trans]
+23.4 +17.3 69 +29 +29 душно 1010.1 983.2
21 14.04 штиль 0 4000 м дымка 5/3 1200 м
[Sc diur, vesp Ac trans]
+20.8 +19.4 92 +25 +25 комфорт 1009.5 982.4
00 15.04 штиль 0 4000 м дымка 4/0
[Ac trans]
+20.4 +18.2 87 +24 +24 комфорт 1008.8 981.7
03 15.04 нст 1 4000 м мгла 3/0
[Ac trans]
+26.4 +17.9 60 +31 +37 душно 1009.3 982.7 +20.4 +34.0
06 15.04 нст 1 4000 м 5/3 1200 м
[Sc diur, vesp Ac trans]
+32.2 +18.3 44 +37 +49 очень
душно
1008.8 982.7
09 15.04 З 4 4000 м 5/3 1200 м
[Sc diur, vesp Ac trans]
+35.0 +15.7 32 +37 +43 очень
душно
1006.3 980.5
12 15.04 З 4 4000 м 4/0
[Ac trans]
+34.2 +15.8 33 +36 +38 душно 1003.9 978.1 +36.3
15 15.04 З 4 4000 м мгла 6/4 1050 м
[Sc diur, vesp Ac As]
+26.4 +16.0 53 +30 +30 душно 1006.0 979.5
18 15.04 З 5 2000 м пыль {метель} 10/5 1050 м
[Sc diur, vesp As op]
+22.6 +12.9 54 +25 +25 комфорт 1011.1 984.1
21 15.04 СВ 4 2000 м слаб. дождь {морось} 10/5 1050 м
[Cb cap As op]
+20.4 +14.6 69 +23 +23 комфорт 1010.1 983.0 3
00 16.04 С 5 4000 м мгла {дождь} 10/5 1050 м
[Cb cap As op]
+20.8 +16.2 75 +24 +24 комфорт 1008.3 981.2 0.5
03 16.04 штиль 0 4000 м дымка 9/4 1200 м
[Sc diur, vesp Ac As]
+20.8 +16.9 78 +18.5 +36.3 0.5
06 16.04 ЮВ 4 4000 м 9/5 1200 м
[Sc diur, vesp Ac As]
+27.0 +13.9 45 +29 +32 жарко 1010.2 983.6
09 16.04 Ю 5 4000 м 9/5 1200 м
[Sc diur, vesp Ac As]
+28.6 +13.5 39 +30 +32 жарко 1008.7 982.3
12 16.04 нст 1 4000 м мгла 8/4 1200 м
[Sc diur, vesp Ac As]
+27.8 +15.8 48 +31 +32 душно 1006.9 980.5 +30.4
15 16.04 СЗ 5 2000 м мгла {гроза, дождь} 9/4 1050 м
[Cb cap Ac As]
+20.8 +13.9 65 +23 +23 комфорт 1008.1 981.0 5
18 16.04 В 2 2000 м мгла {гроза, дождь} 8/4 1200 м
[Sc diur, vesp Ac As]
+19.6 +14.1 71 +22 +22 комфорт 1009.3 982.1 5
21 16.04 нст 2 2000 м гроза, ливневой дождь 9/5 1050 м
[Cb cap Ac As]
+17.4 +13.5 78 +18 +18 1011.2 983.7 20
00 17.04 нст 1 2000 м слаб. морось {гроза, дождь} 9/5 1050 м
[Cb cap Ac As]
+17.2 +12.5 74 +18 +18 1010.0 982.6 22
03 17.04 нст 1 2000 м слаб. дождь {морось} 10/5 1200 м
[Sc diur, vesp As op]
+17.8 +17.5 98 +19 +20 1011.4 984.0 +16.6 +30.4 27
06 17.04 В 5 2000 м дымка {дождь} 9/5 1200 м
[Sc diur, vesp Ac As]
+20.8 +17.2 80 +25 +27 комфорт 1012.8 985.6 2
09 17.04 В 5 4000 м мгла 8/4 900 м
[Sc diur, vesp Ac As]
+22.4 +15.8 66 +26 +29 жарко 1012.5 985.5 2
12 17.04 В 7 4000 м мгла 8/3 1050 м
[Sc diur, vesp Ac As]
+21.2 +15.9 72 +25 +25 комфорт 1011.4 984.3 +23.4
15 17.04 штиль 0 4000 м дымка 6/3 1050 м
[Sc diur, vesp Ac trans]
+17.8 +14.7 82 +18 +18 1013.6 986.1 2
18 17.04 нст 1 4000 м дымка 6/3 1050 м
[Sc diur, vesp Ac trans]
+16.0 +13.5 85 +17 +17 1014.6 986.9 2
21 17.04 В 3 4000 м дымка {дождь} 9/4 900 м
[Sc diur, vesp Ac As]
+16.6 +14.1 85 +16 +16 1014.5 986.9 2
00 18.04 нст 1 2000 м дымка 9/4 1050 м
[Sc diur, vesp Ac As]
+16.6 +15.2 91 +17 +17 1014.3 986.7 2
03 18.04 нст 1 2000 м дымка 5/3 1050 м
[Sc diur, vesp Ac trans]
+18.0 +15.6 86 +19 +23 1015.4 987.9 +10.0 +23.4 2
06 18.04 нст 1 4000 м 3/3 1200 м
[Sc diur, vesp]
+24.6 +17.9 66 +29 +44 душно 1014.7 987.8
09 18.04 З 3 4000 м 4/4 900 м
[Sc diur, vesp]
+28.0 +13.1 40 +30 +38 жарко 1012.1 985.6
12 18.04 З 4 4000 м 4/4 900 м
[Sc diur, vesp]
+27.2 +13.8 44 +29 +30 жарко 1010.9 984.3 +28.5
15 18.04 штиль 0 4000 м мгла 3/3 1200 м
[Sc diur, vesp]
+22.8 +15.1 62 +27 +27 душно 1011.9 984.9
18 18.04 штиль 0 2000 м дымка 3/3 1200 м
[Sc diur, vesp]
+19.2 +16.2 83 +21 +21 комфорт 1012.0 984.7
21 18.04 штиль 0 2000 м дымка 3/3 1200 м
[Sc diur, vesp]
+18.6 +16.6 88 +19 +19 1011.0 983.7
00 19.04 штиль 0 2000 м дымка 3/3 1200 м
[Sc diur, vesp]
+16.8 +15.1 90 +17 +17 1010.4 982.9
03 19.04 штиль 0 2000 м мгла ясно +22.6 +14.9 62 +26 +35 жарко 1010.9 983.9 +15.4 +28.5
06 19.04 нст 1 4000 м ясно +28.2 +14.3 43 +30 +52 опасность
солнечного
удара
1011.0 984.5
09 19.04 нст 1 4000 м 4/4 900 м
[Sc diur, vesp]
+29.6 +10.3 30 +30 +40 жарко 1008.9 982.6
12 19.04 нст 2 4000 м мгла 3/0
[Ac trans]
+30.6 +12.3 33 +31 +34 жарко 1007.4 981.2 +31.6
15 19.04 штиль 0 2000 м мгла 3/0
[Ac trans]
+24.0 +15.0 57 +27 +27 жарко 1008.7 981.9
18 19.04 штиль 0 2000 м дымка 3/0
[Ac trans]
+21.2 +17.3 78 +25 +25 комфорт 1009.4 982.3
21 19.04 штиль 0 2000 м дымка 3/0
[Ac trans]
+20.0 +16.4 80 +22 +22 комфорт 1008.0 980.9
00 20.04 штиль 0 2000 м дымка 3/0
[Ac trans]
+17.6 +15.6 88 +18 +18 1007.2 979.9
03 20.04 нст 1 4000 м мгла 4/0
[Ac trans]
+25.0 +18.4 67 +30 +35 душно 1007.7 981.0 +17.0 +31.6
06 20.04 ЮЗ 2 4000 м мгла 6/0
[Ac trans Ci fib]
+30.0 +15.4 41 +33 +48 душно 1007.4 981.2 +17.0 +31.6
09 20.04 нст 1 4000 м мгла 6/4 1050 м
[Sc diur, vesp Ci fib]
+32.4 +13.1 31 +33 +43 жарко 1006.1 980.1
12 20.04 З 2 4000 м мгла 3/3 1050 м
[Sc diur, vesp]
+31.8 +14.1 34 +33 +35 жарко 1004.6 978.6 +32.9
15 20.04 штиль 0 2000 м мгла ясно +26.0 +15.1 51 +29 +29 душно 1005.6 979.1
18 20.04 штиль 0 2000 м мгла ясно +23.0 +15.7 63 +27 +27 душно 1006.6 979.8
21 20.04 штиль 0 2000 м мгла ясно +20.6 +16.2 76 +23 +23 комфорт 1005.4 978.4
00 21.04 штиль 0 2000 м дымка ясно +20.0 +17.1 83 +23 +23 комфорт 1005.4 978.3
03 21.04 штиль 0 4000 м мгла ясно +27.2 +18.8 60 +32 +41 очень
душно
1005.6 979.2 +19.0 +32.9
06 21.04 нст 1 4000 м мгла ясно +33.0 +15.8 36 +36 +58 опасность
солнечного
удара
1006.1 980.2
09 21.04 С 4 4000 м мгла 4/4
[Sc diur, vesp]
+34.4 +11.4 25 +34 +40 очень
жарко
1004.1 978.3

 

Местоположение метеостанции Амритсар (Пенджаб, Индия): широта 31.63 долгота 74.87 высота над уровнем моря 234 м.

В архиве по умолчанию представлена погода в Амритсаре за последнюю неделю. Архивные данные за месяц целиком и за предыдущие месяцы, начиная с января 2011 года, Вы можете получить, выбрав интересующий диапазон дат из раскрывающегося списка и нажав кнопку "Ввод!".


*Определитесь, кто Вы:
робот инопланетянин человек

Внимание! Время в таблицах - всемирное. Для получения местного времени необходимо прибавить поправку, которая равна 5.5 ч.

Смотрите также архив погоды в соседних городах и на ближайших метеорологических станциях:

Погода в Лахор аэропорту (Пакистан) (46 км)
Погода в Лахоре (Пакистан) (52 км)
Погода в Наровале (Пакистан) (53 км)
Погода в Касуре (Пакистан) (70 км)
Погода в Гуджранвале (Пакистан) (91 км)
Погода в Сиялкоте (Пакистан) (102 км)
Погода в Джамму (Джамму и Кашмир, Индия) (116 км)
Погода в Гуджрате (Пакистан) (124 км)
Погода в Хафизабаде (Пакистан) (126 км)
Погода в Сиалкот аэропорту (Пакистан) (128 км)

Пояснения к столбцам:

Ветер - указаны скорость ветра в м/с - средняя за 10 мин, порывы в срок и между сроками (в фигурных скобках) и направление, откуда дует ветер: С - северный, СВ - северо-восточный, В - восточный, ЮВ - юго-восточный, Ю - южный, ЮЗ - юго-западный, З - западный, СЗ - северо-западный.
Видимость - горизонтальная дальность видимости в метрах или километрах. При видимости от 1 до 10 км при отсутствии осадков обычно наблюдается дымка, при ухудшении видимости до 1 км и менее - туман. В сухую погоду видимость может ухудшаться дымом, пылью или мглою.
Явления - указаны атмосферные явления, наблюдавшиеся в срок или в последний час перед сроком; фигурными скобками обозначены явления, наблюдавшиеся между сроками (за 1-3 часа до срока); квадратными скобками обозначены град или гололедные отложения с указанием их диаметра в мм.
Облачность - указаны через наклонную черту общая и нижняя облачность в баллах и высота нижней границы облаков в метрах; квадратными скобками обозначены формы облаков: Ci - перистые, Cs - перисто-слоистые, Cc - перисто-кучевые, Ac - высококучевые, As - высокослоистые, Sc - слоисто-кучевые, Ns - слоисто-дождевые, Cu - кучевые, Cb - кучево-дождевые. Подробнее классификацию облаков см. в Атласе облаков (PDF).
T - Температура воздуха - температура, измеренная на высоте 2 м над землей.
Td - Температура точки росы - температура, при понижении до которой содержащийся в воздухе водяной пар достигнет насыщения.
f - Относительная влажность воздуха - влажноcть воздуха, измеренная на высоте 2 м над землей.
Te - Эффективная температура - температура, которую ощущает одетый по сезону человек в тени. Характеристика душности погоды. При расчете учитывается влияние влажности воздуха и скорости ветра на теплоощущения человека.
Tes - Эффективная температура на солнце - температура, которую ощущает человек, с поправкой на солнечный нагрев. Характеристика знойности погоды. Зависит от высоты солнца над горизонтом, облачности и скорости ветра. Ночью, в пасмурную погоду, а также при ветре 12 м/с и более поправка равна нулю.
P - Атмосферное давление - приведенное к уровню моря атмосферное давление.
Po - Атмосферное давление - измеренное на уровне метеостанции атмосферное давление.
Tmin - Минимальная температура - минимум температуры воздуха на высоте 2 м над землей.
Tmax - Максимальная температура - максимум температуры воздуха на высоте 2 м над землей.
R - Количество осадков - Количество выпавших осадков за период времени, мм. При наведении курсора мыши на число - период времени, за который выпало указанное количество осадков.
R24 - Количество осадков - Количество выпавших осадков за 24 часа, мм.
S - Снежный покров - Высота снежного покрова, см. При наведении курсора мыши на число - состояние снежного покрова и степень покрытия местности в баллах.